DW0465 Weather Reports


Display with metric or nautical units.
time (UTC)temp
F
wind
direction
speed
MPH
gust
MPH
rain 1hr
in
rain 24hr
in
rain mn
in
humidity
%
barometer
mb
20260902154531 74 218 0.0 1.0 0.00 0.00 0.00 34 1003.5
20260902153042 72 213 0.0 1.0 0.00 0.00 0.00 35 1003.5
20260902151519 70 163 0.0 0.0 0.00 0.00 0.00 41 1003.8
20260902150015 68 195 0.0 0.0 0.00 0.00 0.00 43 1003.9
20260902144510 66 207 0.0 0.0 0.00 0.00 0.00 48 1004.2
20260902143006 64 209 0.0 0.0 0.00 0.00 0.00 52 1004.4
20260902141504 60 198 0.0 0.0 0.00 0.00 0.00 58 1004.6
20260902140105 58 197 0.0 0.0 0.00 0.00 0.00 62 1004.8
20260902134557 56 136 0.0 0.0 0.00 0.00 0.00 68 1004.9
20260902133056 57 123 0.0 0.0 0.00 0.00 0.00 65 1004.6
20260902131556 57 123 0.0 0.0 0.00 0.00 0.00 62 1004.8
20260902130051 59 123 0.0 0.0 0.00 0.00 0.00 61 1004.6
20260902124550 60 152 0.0 0.0 0.00 0.00 0.00 55 1004.3
20260902123056 60 153 0.0 0.0 0.00 0.00 0.00 58 1004.3
20260902121548 59 153 0.0 0.0 0.00 0.00 0.00 58 1004.3
20260902120048 58 118 0.0 0.0 0.00 0.00 0.00 59 1004.1
20260902114546 58 194 0.0 0.0 0.00 0.00 0.00 61 1004.4
20260902113043 57 170 0.0 0.0 0.00 0.00 0.00 61 1004.5
20260902111542 56 152 0.0 0.0 0.00 0.00 0.00 65 1004.8
20260902110045 56 213 0.0 0.0 0.00 0.00 0.00 64 1004.9
20260902104541 56 200 0.0 1.0 0.00 0.00 0.00 62 1004.8
20260902103040 56 204 0.0 3.0 0.00 0.00 0.00 64 1004.7
20260902101538 56 208 0.0 6.0 0.00 0.00 0.00 64 1004.7
20260902100038 55 209 0.0 0.0 0.00 0.00 0.00 66 1004.9
20260902094536 54 200 0.0 0.0 0.00 0.00 0.00 66 1005.0
20260902093038 54 211 0.0 0.0 0.00 0.00 0.00 66 1005.0
20260902091535 54 173 0.0 0.0 0.00 0.00 0.00 67 1005.1
20260902090036 54 154 0.0 0.0 0.00 0.00 0.00 67 1005.3
20260902084531 53 244 0.0 0.0 0.00 0.00 0.00 67 1005.4
20260902083028 54 192 0.0 0.0 0.00 0.00 0.00 65 1005.3
20260902081526 55 190 0.0 0.0 0.00 0.00 0.00 65 1005.5
20260902080024 56 219 0.0 0.0 0.00 0.00 0.00 65 1005.4
20260902074525 57 211 0.0 2.0 0.00 0.00 0.00 64 1005.5
20260902073018 58 191 0.0 4.0 0.00 0.00 0.00 61 1005.5
20260902071515 58 220 0.0 4.0 0.00 0.00 0.00 59 1005.6
20260902070017 59 228 0.0 1.0 0.00 0.00 0.00 56 1005.7
20260902064506 61 200 0.0 0.0 0.00 0.00 0.00 51 1005.9
20260902063005 63 349 0.0 0.0 0.00 0.00 0.00 49 1006.1
20260902061514 66 285 0.0 17.0 0.00 0.00 0.00 43 1006.2
20260902054612 60 234 0.0 0.0 0.00 0.00 0.00 55 1006.7
20260902053105 59 109 0.0 0.0 0.00 0.00 0.00 54 1006.0
20260902051559 60 103 0.0 0.0 0.00 0.00 0.00 53 1005.9
20260902050058 61 188 0.0 0.0 0.00 0.00 0.00 53 1005.8
20260902044556 59 205 0.0 0.0 0.00 0.00 0.00 56 1005.8
20260902043057 59 215 0.0 0.0 0.00 0.00 0.00 60 1005.8
20260902041555 59 208 0.0 1.0 0.00 0.00 0.00 59 1005.9
20260902040055 59 213 0.0 0.0 0.00 0.00 0.00 59 1006.0
20260902034558 60 221 0.0 0.0 0.00 0.00 0.00 57 1005.8
20260902033056 61 216 0.0 0.0 0.00 0.00 0.00 54 1005.7
20260902031553 61 163 0.0 1.0 0.00 0.00 0.00 46 1005.6
20260902030052 61 157 0.0 0.0 0.00 0.00 0.00 46 1005.2
20260902024552 61 138 0.0 0.0 0.00 0.00 0.00 48 1004.8
20260902023105 62 128 0.0 0.0 0.00 0.00 0.00 50 1004.5
20260902021550 63 127 0.0 0.0 0.00 0.00 0.00 59 1004.4
20260902020049 66 128 0.0 0.0 0.00 0.00 0.00 54 1004.3
20260902014549 67 128 0.0 0.0 0.00 0.00 0.00 51 1004.4
20260902013054 70 128 0.0 0.0 0.00 0.00 0.00 47 1004.4
20260902011548 73 128 0.0 0.0 0.00 0.00 0.00 41 1004.3
20260902010047 75 128 0.0 0.0 0.00 0.00 0.00 33 1004.2
20260902004547 75 113 0.0 0.0 0.00 0.00 0.00 35 1004.1
20260902003047 74 63 0.0 1.0 0.00 0.00 0.00 32 1004.1
20260902001600 75 55 0.0 0.0 0.00 0.00 0.00 32 1004.3
20260902000045 74 281 0.0 0.0 0.00 0.00 0.00 37 1004.4
20260901234542 72 297 0.0 1.0 0.00 0.00 0.00 38 1004.6
20260901233041 72 317 0.0 0.0 0.00 0.00 0.00 37 1004.6
20260901231542 73 299 0.0 1.0 0.00 0.00 0.00 36 1004.7
20260901230041 73 72 0.0 0.0 0.00 0.00 0.00 35 1004.7
20260901224540 74 71 0.0 0.0 0.00 0.00 0.00 35 1004.7
20260901223047 75 42 0.0 0.0 0.00 0.00 0.00 34 1004.6
20260901221554 74 242 0.0 0.0 0.00 0.00 0.00 35 1005.0
20260901220041 71 329 0.0 4.0 0.00 0.00 0.00 41 1005.0
20260901214536 70 252 1.0 7.0 0.00 0.00 0.00 45 1005.1
20260901213136 72 305 0.0 3.0 0.00 0.00 0.00 38 1004.9
20260901211535 74 344 0.0 10.0 0.00 0.00 0.00 35 1004.8
20260901210034 75 348 0.0 0.0 0.00 0.00 0.00 31 1004.8
20260901204533 75 355 0.0 1.0 0.00 0.00 0.00 29 1004.9
20260901203036 75 360 0.0 0.0 0.00 0.00 0.00 30 1004.8
20260901201530 75 313 0.0 0.0 0.00 0.00 0.00 31 1004.9
20260901200032 74 280 0.0 0.0 0.00 0.00 0.00 31 1005.0
20260901194526 75 292 0.0 0.0 0.00 0.00 0.00 29 1005.2
20260901193022 74 52 0.0 0.0 0.00 0.00 0.00 29 1005.5
20260901191546 74 51 0.0 3.0 0.00 0.00 0.00 29 1005.8
20260901190019 74 5 0.0 1.0 0.00 0.00 0.00 31 1005.7
20260901184516 74 60 0.0 0.0 0.00 0.00 0.00 31 1006.0
20260901183011 73 46 0.0 0.0 0.00 0.00 0.00 29 1006.2
20260901181508 73 254 0.0 1.0 0.00 0.00 0.00 29 1006.4
20260901180005 71 34 0.0 1.0 0.00 0.00 0.00 31 1006.7
20260901174502 71 229 0.0 1.0 0.00 0.00 0.00 32 1006.9
20260901173104 71 299 0.0 4.0 0.00 0.00 0.00 37 1007.0
20260901171605 71 325 0.0 4.0 0.00 0.00 0.00 34 1007.0
20260901170056 70 298 0.0 0.0 0.00 0.00 0.00 34 1007.1
20260901164552 68 228 0.0 0.0 0.00 0.00 0.00 40 1007.2
20260901163050 67 228 0.0 0.0 0.00 0.00 0.00 44 1007.1
20260901161605 67 228 0.0 0.0 0.00 0.00 0.00 36 1007.2
20260901160047 67 228 0.0 0.0 0.00 0.00 0.00 40 1007.1